Torna al catalogo

COSMOS 2251 DEB

AttivoLEO
NORAD 35060·DEBRIS·🇷🇺 Russia

Lanciato Jun 16, 1993 da Plesetsk Cosmodrome

Loading…

Prossimi Passaggi (prossime 24 ore)

TLE

In scadenzaSource: Space-Track

Epoca: Sep 9, 2026, 06:29 UTC

1 35060U 93036AHP 26252.27033836  .00000509  00000-0  16251-3 0  9996
2 35060  74.0353 102.9729 0017639 127.9970 232.2783 14.42088247911412

Traccia COSMOS 2251 DEB in tempo reale con AllMySat

Download on the App Store